TimeEDT,TemperatureF,Dew PointF,Humidity,Sea Level PressureIn,VisibilityMPH,Wind Direction,Wind SpeedMPH,Gust SpeedMPH,PrecipitationIn,Events,Conditions,WindDirDegrees,DateUTC
12:15 AM,57.2,55.0,92,30.03,10.0,ENE,3.5,-,N/A,,Overcast,60,2013-04-30 04:15:00
12:35 AM,57.6,54.7,90,30.03,10.0,East,3.5,-,N/A,,Mostly Cloudy,90,2013-04-30 04:35:00
12:55 AM,57.2,54.5,91,30.03,10.0,Calm,Calm,-,N/A,,Overcast,0,2013-04-30 04:55:00
1:15 AM,57.7,54.9,90,30.03,10.0,SE,3.5,-,N/A,,Overcast,140,2013-04-30 05:15:00
1:35 AM,56.3,54.7,94,30.03,10.0,East,3.5,-,N/A,,Scattered Clouds,100,2013-04-30 05:35:00
1:55 AM,57.2,54.5,91,30.02,10.0,Calm,Calm,-,N/A,,Mostly Cloudy,0,2013-04-30 05:55:00
2:15 AM,55.8,54.1,94,30.02,10.0,Calm,Calm,-,N/A,,Scattered Clouds,0,2013-04-30 06:15:00
2:35 AM,56.7,54.5,92,30.02,10.0,ENE,4.6,-,N/A,,Scattered Clouds,60,2013-04-30 06:35:00
2:55 AM,55.6,53.6,93,30.01,10.0,Calm,Calm,-,N/A,,Mostly Cloudy,0,2013-04-30 06:55:00
3:15 AM,53.2,53.2,100,30.01,10.0,Calm,Calm,-,N/A,,Scattered Clouds,0,2013-04-30 07:15:00
3:35 AM,53.8,53.6,99,30.02,10.0,Calm,Calm,-,N/A,,Clear,0,2013-04-30 07:35:00
3:55 AM,53.2,52.7,98,30.02,10.0,East,4.6,-,N/A,,Clear,80,2013-04-30 07:55:00
4:15 AM,53.6,53.6,100,30.03,10.0,Calm,Calm,-,N/A,,Clear,0,2013-04-30 08:15:00
4:35 AM,54.7,54.5,99,30.03,10.0,East,3.5,-,N/A,,Clear,90,2013-04-30 08:35:00
4:55 AM,55.0,54.5,98,30.04,10.0,East,6.9,-,N/A,,Clear,90,2013-04-30 08:55:00
5:15 AM,56.1,55.4,97,30.05,10.0,East,5.8,-,N/A,,Clear,90,2013-04-30 09:15:00
5:35 AM,54.5,54.5,100,30.05,10.0,East,8.1,-,N/A,,Mostly Cloudy,90,2013-04-30 09:35:00
5:55 AM,55.4,55.4,100,30.05,10.0,East,4.6,-,N/A,,Overcast,90,2013-04-30 09:55:00
6:15 AM,54.9,54.1,97,30.06,10.0,East,4.6,-,N/A,,Scattered Clouds,100,2013-04-30 10:15:00
6:35 AM,53.6,53.6,100,30.06,10.0,East,4.6,-,N/A,,Clear,100,2013-04-30 10:35:00
6:55 AM,53.2,53.2,100,30.07,10.0,East,3.5,-,N/A,,Clear,100,2013-04-30 10:55:00
7:15 AM,54.5,54.5,100,30.08,10.0,Calm,Calm,-,N/A,,Clear,0,2013-04-30 11:15:00
7:35 AM,55.0,55.0,100,30.09,10.0,East,6.9,-,N/A,,Clear,100,2013-04-30 11:35:00
7:55 AM,56.7,56.5,99,30.10,10.0,East,5.8,-,N/A,,Clear,100,2013-04-30 11:55:00
8:15 AM,58.5,57.0,95,30.10,10.0,East,6.9,-,N/A,,Clear,100,2013-04-30 12:15:00
8:35 AM,60.3,57.6,91,30.11,10.0,East,9.2,-,N/A,,Clear,100,2013-04-30 12:35:00
8:55 AM,61.5,57.9,88,30.11,10.0,East,8.1,-,N/A,,Clear,90,2013-04-30 12:55:00
9:15 AM,63.3,58.3,84,30.11,10.0,ESE,9.2,-,N/A,,Clear,110,2013-04-30 13:15:00
9:35 AM,64.6,58.8,82,30.11,10.0,ESE,6.9,-,N/A,,Clear,110,2013-04-30 13:35:00
9:55 AM,65.7,59.2,80,30.11,10.0,East,8.1,-,N/A,,Clear,100,2013-04-30 13:55:00
10:15 AM,67.1,58.6,74,30.11,10.0,ESE,5.8,-,N/A,,Clear,110,2013-04-30 14:15:00
10:35 AM,67.5,58.8,74,30.11,10.0,ENE,4.6,-,N/A,,Clear,70,2013-04-30 14:35:00
10:55 AM,68.9,58.8,70,30.11,10.0,East,5.8,-,N/A,,Clear,100,2013-04-30 14:55:00
11:15 AM,70.2,59.0,68,30.11,10.0,ESE,3.5,-,N/A,,Clear,110,2013-04-30 15:15:00
11:35 AM,69.1,57.4,66,30.10,10.0,Calm,Calm,-,N/A,,Scattered Clouds,0,2013-04-30 15:35:00
11:55 AM,71.1,58.5,64,30.10,10.0,East,5.8,-,N/A,,Scattered Clouds,100,2013-04-30 15:55:00
12:15 PM,72.9,58.1,60,30.10,10.0,SSW,3.5,-,N/A,,Scattered Clouds,200,2013-04-30 16:15:00
12:35 PM,73.4,57.4,57,30.09,10.0,WSW,4.6,-,N/A,,Scattered Clouds,240,2013-04-30 16:35:00
12:55 PM,72.9,57.0,57,30.09,10.0,North,5.8,-,N/A,,Scattered Clouds,350,2013-04-30 16:55:00
1:15 PM,72.5,56.3,57,30.09,10.0,Calm,Calm,-,N/A,,Mostly Cloudy,0,2013-04-30 17:15:00
1:35 PM,73.8,56.7,55,30.08,10.0,Calm,Calm,-,N/A,,Scattered Clouds,0,2013-04-30 17:35:00
1:55 PM,75.2,55.6,50,30.07,10.0,Calm,Calm,-,N/A,,Clear,0,2013-04-30 17:55:00
2:15 PM,76.1,55.8,49,30.07,10.0,South,4.6,-,N/A,,Clear,170,2013-04-30 18:15:00
2:35 PM,77.5,55.8,47,30.07,10.0,SSW,4.6,-,N/A,,Clear,210,2013-04-30 18:35:00
2:55 PM,77.0,56.5,49,30.06,10.0,ESE,5.8,-,N/A,,Scattered Clouds,120,2013-04-30 18:55:00
3:15 PM,77.2,57.4,50,30.06,10.0,East,5.8,-,N/A,,Clear,100,2013-04-30 19:15:00
3:35 PM,78.1,56.5,47,30.06,10.0,Calm,Calm,-,N/A,,Clear,0,2013-04-30 19:35:00
3:55 PM,77.2,56.3,48,30.05,10.0,East,8.1,-,N/A,,Mostly Cloudy,90,2013-04-30 19:55:00
4:15 PM,76.5,55.6,48,30.05,10.0,Calm,Calm,-,N/A,,Scattered Clouds,0,2013-04-30 20:15:00
4:35 PM,76.6,56.3,49,30.05,10.0,SSE,5.8,-,N/A,,Scattered Clouds,150,2013-04-30 20:35:00
4:55 PM,78.3,55.9,46,30.05,10.0,ESE,8.1,-,N/A,,Mostly Cloudy,110,2013-04-30 20:55:00
5:15 PM,76.1,55.0,48,30.05,10.0,SSE,6.9,-,N/A,,Overcast,150,2013-04-30 21:15:00
5:35 PM,75.2,54.1,48,30.06,10.0,South,4.6,-,N/A,,Overcast,170,2013-04-30 21:35:00
5:55 PM,75.2,54.1,48,30.07,10.0,SSW,3.5,-,N/A,,Scattered Clouds,200,2013-04-30 21:55:00
6:15 PM,75.4,54.5,48,30.07,10.0,SSW,6.9,-,N/A,,Scattered Clouds,200,2013-04-30 22:15:00
6:35 PM,74.7,55.4,51,30.08,10.0,SSW,6.9,-,N/A,,Mostly Cloudy,210,2013-04-30 22:35:00
6:55 PM,74.3,55.2,51,30.08,10.0,South,4.6,-,N/A,,Scattered Clouds,190,2013-04-30 22:55:00
7:15 PM,73.4,55.0,52,30.09,10.0,South,4.6,-,N/A,,Scattered Clouds,190,2013-04-30 23:15:00
7:35 PM,72.5,55.2,54,30.09,10.0,South,4.6,-,N/A,,Mostly Cloudy,190,2013-04-30 23:35:00
7:55 PM,72.3,54.9,54,30.10,10.0,SSE,8.1,-,N/A,,Overcast,160,2013-04-30 23:55:00
8:15 PM,71.6,55.4,57,30.11,10.0,South,8.1,-,N/A,,Overcast,170,2013-05-01 00:15:00
8:35 PM,70.5,55.8,59,30.11,10.0,SSE,6.9,-,N/A,,Mostly Cloudy,150,2013-05-01 00:35:00
8:55 PM,69.3,55.9,62,30.12,10.0,SE,6.9,-,N/A,,Mostly Cloudy,140,2013-05-01 00:55:00
9:15 PM,68.9,56.3,64,30.13,10.0,SE,3.5,-,N/A,,Overcast,130,2013-05-01 01:15:00
9:35 PM,68.0,57.2,68,30.14,10.0,ESE,9.2,-,N/A,,Overcast,120,2013-05-01 01:35:00
9:55 PM,67.5,56.8,69,30.16,10.0,ESE,6.9,-,N/A,,Overcast,110,2013-05-01 01:55:00
10:15 PM,65.8,57.4,74,30.16,10.0,ESE,9.2,-,N/A,,Mostly Cloudy,110,2013-05-01 02:15:00
10:35 PM,64.4,57.2,77,30.16,10.0,ESE,10.4,-,N/A,,Scattered Clouds,110,2013-05-01 02:35:00
10:55 PM,64.0,57.2,78,30.17,10.0,ESE,9.2,-,N/A,,Clear,110,2013-05-01 02:55:00
11:15 PM,63.9,56.8,78,30.17,10.0,ESE,9.2,-,N/A,,Clear,110,2013-05-01 03:15:00
11:35 PM,62.4,57.4,84,30.17,10.0,East,10.4,-,N/A,,Clear,100,2013-05-01 03:35:00
11:55 PM,62.4,57.2,83,30.18,10.0,East,9.2,-,N/A,,Clear,90,2013-05-01 03:55:00